Flag for Canada Weather past 2 weeks in Markham, Ontario, Canada

Now
79 °F

Light rain. Mostly cloudy.


Feels Like: 82 °F
Forecast: 63 / 83 °F
Wind: 15 mph from South

Location: Toronto Buttonville

Current Time: Jul 7, 2015 at 2:20:18 PM

Latest Report: Jul 7, 2015 at 2:00 PM


Visibility: 10 mi

Pressure: 29.80 "Hg

Humidity: 79%

Dew point: 72 °F

Location of MarkhamLocation

Historic Weather in Markham — Graph

°F

Markham temperature yesterday

Maximum temperature yesterday: 79 °F (at 12:00 PM)
Minimum temperature yesterday: 59 °F (at 5:00 AM)
Average temperature yesterday: 71 °F

Past Weeks' High & Low Weather Summary

 TemperatureHumidityPressure
High81 °F (Jul 7, 1:00 PM)100% (Jun 23, 1:04 AM)30.13 "Hg (Jun 23, 1:04 AM)
Low52 °F (Jul 4, 5:00 AM)31% (Jul 3, 5:00 PM)29.62 "Hg (Jun 23, 5:00 AM)
Average66 °F72%29.93 "Hg
* Reported Jun 22 1:00 PM — Jul 7 1:00 PM, Markham, Weather by CustomWeather, © 2015

Note: Actual official high and low records may vary slightly from our data, if they occured in-between our weather recording intervals... More about our weather records

Advertising

Markham weather history for previous 24 hours

 ConditionsComfort  
Time TempWeatherWind HumidityBarometerVisibility
1:00 PM
Tue, Jul 7
81 °FOvercast.14 mph70%29.82 "Hg10 mi
12:00 PM79 °FMostly cloudy.15 mph74%29.83 "Hg10 mi
11:00 AM79 °FMostly cloudy.15 mph70%29.85 "Hg10 mi
10:00 AM75 °FBroken clouds.13 mph78%29.86 "Hg10 mi
9:00 AM75 °FPartly sunny.9 mph78%29.87 "Hg10 mi
8:00 AM70 °FPartly sunny.7 mph78%29.88 "Hg10 mi
7:00 AM68 °FPartly sunny.5 mph78%29.90 "Hg10 mi
6:00 AM64 °FPassing clouds.No wind83%29.90 "Hg10 mi
5:00 AM64 °FClear.No wind83%29.90 "Hg8 mi
4:00 AM68 °FClear.2 mph78%29.90 "Hg8 mi
3:00 AM70 °FClear.6 mph73%29.90 "Hg8 mi
2:00 AM70 °FPassing clouds.5 mph78%29.92 "Hg8 mi
1:00 AM70 °FPassing clouds.2 mph88%29.93 "Hg8 mi
12:00 AM72 °FPassing clouds.3 mph83%29.92 "Hg8 mi
11:00 PM
Mon, Jul 6
70 °FClear.2 mph83%29.95 "Hg10 mi
10:00 PM72 °FPassing clouds.5 mph78%29.95 "Hg10 mi
9:00 PM73 °FScattered clouds.7 mph65%29.96 "Hg12 mi
8:00 PM75 °FScattered clouds.9 mph61%29.98 "Hg15 mi
7:00 PM77 °FPartly sunny.12 mph61%29.99 "Hg15 mi
6:00 PM77 °FPartly sunny.7 mph57%30.00 "Hg15 mi
5:00 PM79 °FPartly sunny.12 mph54%30.01 "Hg15 mi
4:00 PM77 °FBroken clouds.10 mph57%30.03 "Hg15 mi
3:00 PM79 °FScattered clouds.9 mph58%30.03 "Hg15 mi
2:00 PM79 °FScattered clouds.13 mph54%30.04 "Hg15 mi
Weather by CustomWeather, © 2015

See weather overviewHow to use our weather pages